Hourly Weather Roundup
Issued by NWS Central Illinois

Home | Current Version | Previous Version | Text Only | Print | Product List | Glossary On
Versions: 1 2 3 4 5 6 7 8 9 10 11 12 13 14 15 16 17 18 19 20 21 22 23 24 25 26 27 28 29 30 31 32 33 34 35 36 37 38 39 40 41 42 43 44 45 46 47 48 49 50
000
NZUS43 KILX 282210
HWRILX

AREA WEATHER ROUNDUP
NATIONAL WEATHER SERVICE, LINCOLN IL
500 PM CDT TUE JUL 28 2015


CITY           SKY/WX    TMP DP  RH WIND       PRES   REMARKS
BLOOMINGTON    CLOUDY    76  74  93 SE6       29.93F
CHAMPAIGN      CLOUDY    76  73  91 S5        29.93F
DANVILLE       MOSUNNY   86  77  74 E3        29.90F HX  97
DECATUR        CLOUDY    76  72  87 E6        29.94F
EFFINGHAM      PTSUNNY   92  73  52 E5        29.94S HX 101
FLORA          SUNNY     93  77  59 CALM      29.92F HX 106
GALESBURG      CLOUDY    85  80  84 E3        29.90R HX  99
JACKSONVILLE   MOSUNNY   93  80  65 SE5       29.91S HX 111
LACON          CLOUDY    78  72  81 CALM      29.90R HX  81
LAWRENCEVILLE  SUNNY     93  77  59 NW6       29.92F HX 107
LITCHFIELD     SUNNY     91  77  62 CALM      29.92F HX 104
$$


CITY           SKY/WX    TMP DP  RH WIND       PRES   REMARKS
LINCOLN        PTSUNNY   85  73  66 SE6       29.91F HX  91
MACOMB         MOSUNNY   91  78  66 S9        29.91F HX 105
MATTOON        PTSUNNY   76  72  87 CALM      29.95S
MT CARMEL AP   SUNNY     93  72  49 CALM      29.92F HX 100
OLNEY-NOBLE AP MOSUNNY   90  77  66 N5        29.93F HX 102
PARIS          MOSUNNY   89  76  65 CALM      29.93F HX 100
PEORIA         PTSUNNY   84  74  71 SE5       29.91S HX  91
PONTIAC        CLOUDY    82  79  89 S6        29.92R HX  93
RANTOUL        PTSUNNY   82  74  76 S6        29.92S HX  87
ROBINSON       MOSUNNY   90  76  62 CALM      29.94F HX 101
SPRINGFIELD    MOSUNNY   91  79  67 E12       29.91F HX 107
TAYLORVILLE    PTSUNNY   90  79  70 E6        29.92F HX 105
$$

...REGIONAL REPORTS...


CITY           SKY/WX    TMP DP  RH WIND       PRES   REMARKS
CHICAGO O`HARE PTSUNNY   89  70  53 SE14      29.87S HX  94
KANKAKEE       PTSUNNY   89  73  59 SE6       29.90F HX  96
MOLINE         CLOUDY    84  76  76 SW6       29.88S HX  93
MOUNT STERLING NOT AVBL
MOUNT VERNON   MOSUNNY   86  72  62 SW8       29.93R THUNDER HX  92
PITTSFIELD     MOSUNNY   92  79  64 S3        29.92F HX 109
QUINCY         SUNNY     92  77  61 S8        29.90F HX 105
ROCKFORD       CLOUDY    85  74  69 S10       29.92R HX  92
$$


CITY           SKY/WX    TMP DP  RH WIND       PRES   REMARKS
BURLINGTON     PTSUNNY   89  79  72 SE5       29.88F HX 104
CEDAR RAPIDS   LGT RAIN  76  74  93 SW9       29.90F
DES MOINES     TSTM      80  75  84 SE14G26   29.84F HX  85
KIRKSVILLE     MOSUNNY   92  76  59 S12       29.91F HX 104
OTTUMWA        CLOUDY    89  81  77 SE6       29.87S HX 108
ST LOUIS       MOSUNNY   98  74  45 VRB5      29.92S HX 109
$$


CITY           SKY/WX    TMP DP  RH WIND       PRES   REMARKS
TERRE HAUTE    SUNNY     92  74  55 N3        29.94F HX 101
EVANSVILLE     MOSUNNY   93  75  55 VRB5      29.92F HX 104
INDIANAPOLIS   PTSUNNY   88  71  57 W8        29.95S HX  94
LAFAYETTE      MOSUNNY   89  71  55 CALM      29.91F HX  95
MADISON        CLOUDY    84  71  65 S15       29.90R HX  89
MILWAUKEE      CLOUDY    81  66  60 S7        29.92R HX  83
$$




USA.gov is the U.S. government's official web portal to all federal, state and local government web resources and services.